Location: Unspecified
(29.3364°N, 0.0000°E)
Time: 19:45:41
(UTC+00:00)

ACS3 Solar Sail - Visible Passes

Search period start: 04 April 2026 00:00
Search period end: 14 April 2026 00:00
Orbit: 874 x 980 km, 97.2° (Epoch: 29 March)

Date Brightness Start Highest point End Pass type
(mag) Time Alt. Az. Time Alt. Az. Time Alt. Az.
10 Apr 4.5 01:04:17 10° NNE 01:04:28 11° NNE 01:04:28 11° NNE visible
11 Apr 4.4 01:14:05 10° N 01:14:31 12° N 01:14:31 12° N visible
12 Apr 4.3 01:23:52 10° N 01:24:30 13° N 01:24:30 13° N visible
13 Apr 4.2 01:33:39 10° N 01:34:26 14° N 01:34:26 14° N visible
